Нельма

Россия / Хабаровский край     47°39′36″N   138°56′47″E
темп.,
°C
ветер,
м/с
пор.,
м/с
влажн.,
%
обл.,
%
осадки,
мм/ч
давл.,
гПа
погр.,
м
15 мая, сб
сб1501:00+6в007976 0.0 101510
04:00+5св1181100 0.0 101411
07:00+7в1173100 0.0 101379
10:00+7вюв1285100 0.8 1012270
13:00+5вюв31098100 5.9 1008505
16:00+4всв1198100 7.1 1006151
19:00+5сз0198100 1.8 100484
22:00+8з3892100 3.6 1003353
16 мая, вс
вс1601:00+8зюз3888100 0.2 1002403
04:00+7зюз41287100 0.2 1002550
07:00+9зюз41380100 0.0 1002795
10:00+14зюз71656100 0.0 10001685
13:00+17з81439100 0.0 9991879
16:00+18з61237100 0.0 9982017
19:00+14зсз41049100 0.0 10011188
22:00+9з22700 0.0 100214
17 мая, пн
пн1701:00+7зсз32750 0.0 100237
04:00+6зсз33780 0.0 100244
07:00+10з23640 0.0 1002149
10:00+18з48321 0.0 10012004
13:00+22зсз392582 0.0 10003444
16:00+23зсз372122 0.0 9993333
19:00+19сз36360 0.0 1001229
22:00+12зсз3456100 0.0 100449
18 мая, вт
вт1801:00+10зсз336581 0.0 100443
04:00+10зсз336499 0.0 100443
07:00+14зсз2456100 0.0 100497
10:00+21юз1334100 0.0 1003790
13:00+23ююв2330100 0.0 10012218
16:00+22юв3434100 0.0 1000855
19:00+17вюв1157100 0.0 100024
22:00+11сз1172100 0.0 100111
19 мая, ср
ср1901:00+10з0073100 0.0 100112
04:00+9зсз11741 0.0 100012
07:00+15зюз2958100 0.0 999496
10:00+20з711420 0.0 10001561
13:00+22зсз610293 0.0 10002400
16:00+22зсз711185 0.0 10022346
19:00+17зсз49265 0.0 10051453
22:00+10зсз22430 0.0 100934